sat.trackr.live / text

‹ back to catalog

STARLINK-31967

NORAD 60021 · 2024-111F

PAYLOAD ACTIVE UNKNOWN

§ Identity

Operator
Country
US
Launch date
2024-06-08
Launch site
AFETR
Launch vehicle
Mass (kg)
RCS (m²)

Purposes: comms

External: N2YO · Heavens-Above · Gunter

§ Orbital elements

Epoch: 2026-05-25T04:44:55.656960Z

Period
93.85 min
Inclination
53.1611°
Eccentricity
0.0001211
Mean motion
15.34381699 rev/d
Perigee alt
461.9 km
Apogee alt
463.6 km
Semi-major
6,840.9 km
B*
1.1638e-4
RAAN
79.0891°
Arg perigee
101.4920°
Mean anomaly
258.6219°
Rev number
11,077

§ Raw data

STARLINK-319671 60021U 24111F   26145.19786640  .00003556  00000+0  11638-3 0  99972 60021  53.1611  79.0891 0001211 101.4920 258.6219 15.34381699110772

JSON: /api/v1/satellites/60021 · /tle

For live sub-satellite position, see the globe view (requires WebGL).

§ Visibility from observer

Set your observer location to see the next 7 days of passes ≥ 10°. The values pass through the URL so the page stays shareable.

No JS? Fill the form by hand. The geolocation button needs JavaScript.